Weather History for Columbia, MO

Change the Weather History Date:

Tuesday, May 7, 2013

  Actual Average Record
Temperature  
Mean Temperature 66 °F 62 °F  
Max Temperature 79 °F 72 °F 90 °F (1965)
Min Temperature 52 °F 51 °F 33 °F (1931)
Degree Days  
Heating Degree Days 0 5  
Month to date heating degree days 76 38  
Since 1 July heating degree days 4837 4941  
Cooling Degree Days 1 1  
Month to date cooling degree days 7 7  
Year to date cooling degree days 29 32  
Growing Degree Days 16 (Base 50)    
Moisture  
Dew Point 50 °F    
Average Humidity 62    
Maximum Humidity 89    
Minimum Humidity 35    
Precipitation  
Precipitation 0.00 in 0.17 in 3.17 in (1943)
Month to date precipitation 1.19 1.19  
Year to date precipitation 18.11 12.76  
Snow  
Snow 0.00 in 0.00 in 0.00 in (2011)
Month to date snowfall T 0.0  
Since 1 July snowfall 35.0 18.0  
Snow Depth 0.00 in    
Sea Level Pressure  
Sea Level Pressure 30.01 in    
Wind  
Wind Speed 6 mph (NNW)    
Max Wind Speed 10 mph    
Max Gust Speed 14 mph    
Visibility 10 miles    
Events      
T = Trace of Precipitation, MM = Missing Value Source: NWS Daily Summary

Daily Weather History Graph

Daily Weather History Graph

Search for Another Location

Airport:

Trip Planner

Search our weather history database for the weather conditions in past years. The results will help you decide how hot, cold, wet, or windy it might be!

Date:

Astronomy

May. 07, 2013 Rise Set
Actual Time 6:04 AM CDT 8:07 PM CDT
Civil Twilight 5:34 AM CDT 8:36 PM CDT
Nautical Twilight 4:59 AM CDT 9:12 PM CDT
Astronomical Twilight 4:20 AM CDT 9:51 PM CDT
Moon 4:37 AM CDT (5/7) 6:08 PM CDT (5/7)
Length of Visible Light 15h 01m
Length of Day
14h 03m
Waning Crescent, 5% of the Moon is Illuminated
May 7
Waning Crescent
May 9
New
May 17
First Quarter
May 24
Full
May 31
Last Quarter

Hourly Weather History & Observations

Time (CDT) Temp. Dew Point Humidity Pressure Visibility Wind Dir Wind Speed Gust Speed Precip Events Conditions
12:54 AM 57.9 °F 53.1 °F 84% 30.02 in 10.0 mi NW 8.1 mph - N/A   Clear
1:54 AM 57.0 °F 52.0 °F 83% 30.01 in 10.0 mi NW 6.9 mph - N/A   Partly Cloudy
2:54 AM 55.9 °F 51.1 °F 84% 30.01 in 10.0 mi NW 6.9 mph - N/A   Clear
3:54 AM 55.0 °F 50.0 °F 83% 30.01 in 10.0 mi WNW 6.9 mph - N/A   Clear
4:54 AM 53.1 °F 48.9 °F 86% 30.01 in 10.0 mi NW 6.9 mph - N/A   Clear
5:54 AM 53.1 °F 48.9 °F 86% 30.02 in 10.0 mi NW 6.9 mph - N/A   Clear
6:54 AM 54.0 °F 50.0 °F 86% 30.03 in 10.0 mi NW 6.9 mph - N/A   Clear
7:54 AM 59.0 °F 52.0 °F 78% 30.04 in 10.0 mi NNW 4.6 mph - N/A   Clear
8:54 AM 64.9 °F 52.0 °F 63% 30.05 in 10.0 mi North 5.8 mph - N/A   Clear
9:54 AM 70.0 °F 52.0 °F 53% 30.05 in 10.0 mi North 9.2 mph - N/A   Clear
10:54 AM 73.0 °F 53.1 °F 49% 30.05 in 10.0 mi NNW 8.1 mph - N/A   Clear
11:54 AM 75.0 °F 48.9 °F 40% 30.04 in 10.0 mi North 5.8 mph - N/A   Clear
12:54 PM 77.0 °F 48.9 °F 37% 30.03 in 10.0 mi NNW 8.1 mph - N/A   Clear
1:54 PM 77.0 °F 48.0 °F 36% 30.02 in 10.0 mi NNE 6.9 mph - N/A   Clear
2:54 PM 79.0 °F 48.0 °F 34% 30.00 in 10.0 mi NW 5.8 mph - N/A   Partly Cloudy
3:54 PM 78.1 °F 48.0 °F 35% 29.99 in 10.0 mi West 4.6 mph - N/A   Mostly Cloudy
4:54 PM 73.0 °F 50.0 °F 44% 29.99 in 10.0 mi NW 5.8 mph - N/A   Partly Cloudy
5:54 PM 75.9 °F 50.0 °F 40% 29.99 in 10.0 mi NW 8.1 mph - N/A   Partly Cloudy
6:54 PM 73.0 °F 55.0 °F 53% 29.98 in 10.0 mi NNW 4.6 mph - N/A   Clear
7:54 PM 72.0 °F 50.0 °F 46% 29.98 in 10.0 mi North 3.5 mph - N/A   Clear
8:54 PM 69.1 °F 46.9 °F 45% 29.99 in 10.0 mi NNE 3.5 mph - N/A   Clear
9:54 PM 66.0 °F 52.0 °F 60% 30.00 in 10.0 mi Calm Calm - N/A   Clear
10:54 PM 64.9 °F 46.9 °F 52% 29.99 in 10.0 mi East 5.8 mph - N/A   Clear
11:54 PM 62.1 °F 46.9 °F 58% 29.99 in 10.0 mi ESE 4.6 mph - N/A   Clear